FLOCK 4Y 11

导读 | 星芒AI

FLOCK 4Y 11 是由 Planet 公司发射的一颗地球观测卫星,属于其 Dove 系列。该卫星主要用于高分辨率光学成像,支持全球范围内的土地利用监测、环境研究和农业管理。FLOCK 4Y 11 拥有快速重访能力和较高的图像精度,能够提供多光谱数据,助力实时数据分析和决策制定。作为小型卫星的一部分,它通过低成本、高效率的方式,增强了 Planet 在商业遥感领域的竞争力。

基本信息
目录编号:
55043
目录名称:
FLOCK 4Y 11
国际标识:
2023-001AL
轨道中心:
EARTH
卫星名称:
FLOCK 4Y 11
卫星全名:
--
卫星状态:
在轨 (已飞行1023 天)
发射日期:
2023-01-03 UTC
国别 :
美国 (US)
星等 :
--
轨道信息
数据来源 国际轨道数据
星历时间: 2025-10-19T10:29:02+0800
3天前
查看轨道信息
半长轴: 6540.085km
偏心率: 0.0013161
轨道倾角: 97.339°
近地点辐角 264.170°
升交点赤经 9.220°
平近点角 95.810°
近地点: 153.342km
远地点: 170.558km
周期: 87.727分钟
每日圈数: 16.414503
详细信息
使用方式:
暂无
2D轨道图
3D轨道图
轨道高度分析图
轨道倾角分析图
轨道综合分析图
查看轨道综合分析图